{"data":{"norad_id":53066,"intl_designator":"2022-077Z","name":"STARLINK-4309","alt_names":[],"object_type":"PAYLOAD","status":"ACTIVE","operator":null,"country":"US","launch_date":"2022-07-11","launch_site_code":"AFWTR","launch_vehicle":null,"mission":null,"orbit_class":"UNKNOWN","rcs_meters":null,"size_class":null,"mass_kg":null,"dimensions":null,"purposes":["comms"],"wikipedia_slug":null,"has_3d_model":false,"image_url":null,"decayed_at":null,"tle_current":{"epoch":"2026-05-25T01:51:10.364256Z","epoch_age_seconds":62366,"freshness":"FRESH","line1":"1 53066U 22077Z   26145.07720329  .00000860  00000+0  63611-4 0  9990","line2":"2 53066  97.4478 325.0366 0001481  91.5459 268.5937 15.05657883212400","mean_motion":15.05657883,"eccentricity":0.0001481,"inclination_deg":97.4478,"raan_deg":325.0366,"arg_perigee_deg":91.5459,"mean_anomaly_deg":268.5937,"bstar":6.3611e-5,"rev_number":21240,"period_min":95.63925618553,"perigee_km":548.46099271312,"apogee_km":550.51295493417,"semimajor_km":6927.6239738236,"source":"CELESTRAK","updated_at":"2026-05-25T13:38:17.310757Z"}}}